Burlington, WA
on Sunday, February 17, 2013

Sunday
Previous Day Next Day
Daily Summary
 ActualAverage (KBLI)Record (KBLI)
Temperature
Mean Temperature °F 41°F  
Max Temperature 44°F 48°F 58°F (1996)
Min Temperature 37°F 33°F 17°F (1990)
Degree Days
Heating Degree Days 24 24  
Month to date heating degree days 419  
Cooling Degree Days 0 0  
Month to date cooling degree days 0  
Year to date cooling degree days 0  
Moisture
Dew Point 41°F   
Average Humidity 97    
Maximum Humidity 100    
Minimum Humidity 81    
Precipitation
Precipitation 0.15 in 0.10 in 0.85 in (1989)
Month to date precipitation 1.88  
Year to date precipitation 6.55  
Wind
Wind Speed 4 mph   
Max Wind Speed 9 mph   
Max Gust Speed mph   
Visibility 9 miles   
Events     

Key: T is trace of precipitation, MM is missing value
Source: NWS Daily Summary
Time(PST)TemperatureDew PointHumidity Pressure Visibility Wind DirectionWind SpeedGust SpeedPrecipitationEvents Conditions
12:15 AM 44.6°F 44.6°F 100% 30.19 in 10.0 miles WSW 6.9 mph - 0.00 in   Overcast
12:35 AM 44.6°F 44.6°F 100% 30.19 in 10.0 miles WSW 5.8 mph - 0.00 in   Overcast
12:55 AM 44.6°F 44.6°F 100% 30.19 in 10.0 miles SW 5.8 mph - 0.00 in   Overcast
1:15 AM 44.6°F 44.6°F 100% 30.20 in 10.0 miles SW 5.8 mph - 0.00 in   Overcast
1:35 AM 44.6°F 44.6°F 100% 30.20 in 10.0 miles West 3.5 mph - 0.00 in   Overcast
1:55 AM 44.6°F 44.6°F 100% 30.21 in 10.0 miles Calm Calm - 0.00 in   Overcast
2:15 AM 44.6°F 44.6°F 100% 30.21 in 10.0 miles West 4.6 mph - 0.00 in   Overcast
2:35 AM 44.6°F 44.6°F 100% 30.21 in 10.0 miles West 3.5 mph - 0.00 in   Overcast
2:55 AM 42.8°F 42.8°F 100% 30.21 in 10.0 miles Calm Calm - 0.00 in   Mostly Cloudy
3:15 AM 44.6°F 44.6°F 100% 30.21 in 10.0 miles WNW 3.5 mph - 0.00 in   Overcast
3:35 AM 44.6°F 44.6°F 100% 30.21 in 10.0 miles WSW 3.5 mph - 0.00 in   Overcast
4:15 AM 42.8°F 42.8°F 100% 30.21 in 8.0 miles East 3.5 mph - 0.00 in   Overcast
4:35 AM 41.0°F 41.0°F 100% 30.21 in 5.0 miles Calm Calm - 0.00 in   Overcast
5:15 AM 41.0°F 41.0°F 100% 30.22 in 3.0 miles Calm Calm - 0.02 in   Overcast
5:35 AM 41.0°F 41.0°F 100% 30.22 in 5.0 miles East 3.5 mph - 0.05 in   Overcast
5:55 AM 39.2°F 39.2°F 100% 30.23 in 4.0 miles Calm Calm - 0.06 in   Overcast
6:15 AM 39.2°F 39.2°F 100% 30.23 in 4.0 miles East 3.5 mph - 0.03 in   Overcast
6:35 AM 39.2°F 39.2°F 100% 30.22 in 4.0 miles ESE 4.6 mph - 0.04 in   Overcast
6:55 AM 39.2°F 39.2°F 100% 30.22 in 5.0 miles SSE 4.6 mph - 0.05 in   Overcast
7:15 AM 39.2°F 39.2°F 100% 30.23 in 5.0 miles SE 3.5 mph - 0.01 in   Overcast
7:35 AM 39.2°F 39.2°F 100% 30.23 in 3.0 miles Calm Calm - 0.03 in   Overcast
7:55 AM 39.2°F 39.2°F 100% 30.23 in 10.0 miles East 3.5 mph - 0.04 in   Overcast
8:15 AM 39.2°F 39.2°F 100% 30.24 in 10.0 miles South 4.6 mph - 0.00 in   Overcast
8:35 AM 37.4°F 37.4°F 100% 30.24 in 2.5 miles SSE 5.8 mph - 0.00 in   Overcast
8:55 AM 39.2°F 39.2°F 100% 30.24 in 10.0 miles SE 4.6 mph - 0.00 in   Overcast
9:15 AM 39.2°F 39.2°F 100% 30.25 in 10.0 miles Calm Calm - 0.00 in   Overcast
9:35 AM 39.2°F 39.2°F 100% 30.25 in 10.0 miles SE 3.5 mph - 0.00 in   Overcast
9:55 AM 41.0°F 41.0°F 100% 30.25 in 10.0 miles East 3.5 mph - 0.00 in   Mostly Cloudy
10:15 AM 41.0°F 41.0°F 100% 30.25 in 10.0 miles SSE 3.5 mph - 0.00 in   Overcast
10:55 AM 42.8°F 42.8°F 100% 30.25 in 10.0 miles Calm Calm - 0.00 in   Mostly Cloudy
11:15 AM 42.8°F 42.8°F 100% 30.25 in 10.0 miles Calm Calm - 0.00 in   Overcast
11:35 AM 42.8°F 42.8°F 100% 30.25 in 10.0 miles South 5.8 mph - 0.00 in   Overcast
11:55 AM 44.6°F 42.8°F 93% 30.25 in 10.0 miles SSE 6.9 mph - 0.00 in   Mostly Cloudy
12:15 PM 44.6°F 42.8°F 93% 30.24 in 10.0 miles SSE 9.2 mph - 0.00 in   Mostly Cloudy
12:35 PM 44.6°F 42.8°F 93% 30.24 in 10.0 miles South 9.2 mph - 0.00 in   Mostly Cloudy
12:55 PM 44.6°F 42.8°F 93% 30.24 in 10.0 miles SSE 6.9 mph - 0.00 in   Mostly Cloudy
1:15 PM 44.6°F 42.8°F 93% 30.24 in 10.0 miles SSW 8.1 mph - 0.00 in   Overcast
1:35 PM 44.6°F 41.0°F 87% 30.24 in 10.0 miles SSW 5.8 mph - 0.00 in   Overcast
1:55 PM 42.8°F 41.0°F 93% 30.24 in 10.0 miles WNW 5.8 mph - 0.00 in   Overcast
2:15 PM 44.6°F 41.0°F 87% 30.23 in 10.0 miles NW 4.6 mph - 0.00 in   Overcast
2:35 PM 44.6°F 39.2°F 81% 30.23 in 10.0 miles NNW 3.5 mph - 0.00 in   Overcast
2:55 PM 44.6°F 39.2°F 81% 30.22 in 10.0 miles Calm Calm - 0.00 in   Overcast
3:15 PM 44.6°F 39.2°F 81% 30.22 in 10.0 miles Calm Calm - 0.00 in   Overcast
3:35 PM 44.6°F 42.8°F 93% 30.21 in 10.0 miles East 6.9 mph - 0.00 in   Overcast
3:55 PM 44.6°F 41.0°F 87% 30.21 in 10.0 miles ESE 4.6 mph - 0.00 in   Mostly Cloudy
4:15 PM 44.6°F 39.2°F 81% 30.21 in 10.0 miles ESE 4.6 mph - 0.00 in   Mostly Cloudy
4:55 PM 44.6°F 42.8°F 93% 30.20 in 10.0 miles SE 4.6 mph - 0.00 in   Overcast
5:15 PM 42.8°F 42.8°F 100% 30.19 in 9.0 miles SSE 3.5 mph - 0.00 in   Overcast
5:35 PM 42.8°F 42.8°F 100% 30.19 in 10.0 miles SE 3.5 mph - 0.00 in   Overcast
5:55 PM 42.8°F 41.0°F 93% 30.18 in 10.0 miles Calm Calm - 0.00 in   Mostly Cloudy
6:15 PM 42.8°F 41.0°F 93% 30.18 in 10.0 miles Calm Calm - 0.00 in   Mostly Cloudy
6:35 PM 42.8°F 41.0°F 93% 30.17 in 10.0 miles Calm Calm - 0.00 in   Mostly Cloudy
6:55 PM 42.8°F 39.2°F 87% 30.18 in 10.0 miles ESE 3.5 mph - 0.00 in   Overcast
7:15 PM 42.8°F 39.2°F 87% 30.17 in 10.0 miles ESE 3.5 mph - 0.00 in   Mostly Cloudy
7:35 PM 39.2°F 39.2°F 100% 30.17 in 10.0 miles Calm Calm - 0.00 in   Partly Cloudy
7:55 PM 39.2°F 39.2°F 100% 30.17 in 10.0 miles Calm Calm - 0.00 in   Scattered Clouds
8:15 PM 39.2°F 39.2°F 100% 30.17 in 10.0 miles Calm Calm - 0.00 in   Mostly Cloudy
8:35 PM 39.2°F 39.2°F 100% 30.17 in 10.0 miles ENE 3.5 mph - 0.00 in   Mostly Cloudy
9:15 PM 37.4°F 37.4°F 100% 30.17 in 10.0 miles Calm Calm - 0.00 in   Clear
9:35 PM 37.4°F 37.4°F 100% 30.17 in 10.0 miles Calm Calm - 0.00 in   Mostly Cloudy
10:15 PM 39.2°F 39.2°F 100% 30.16 in 10.0 miles NE 4.6 mph - 0.00 in   Overcast
10:35 PM 39.2°F 39.2°F 100% 30.16 in 10.0 miles NE 3.5 mph - 0.00 in   Overcast
10:55 PM 39.2°F 39.2°F 100% 30.15 in 10.0 miles ENE 3.5 mph - 0.00 in   Overcast
11:15 PM 39.2°F 39.2°F 100% 30.15 in 10.0 miles Calm Calm - 0.00 in   Overcast
11:35 PM 39.2°F 39.2°F 100% 30.14 in 5.0 miles ENE 5.8 mph - 0.00 in   Overcast
Moon Phase
Feb. 17 Feb. 17 Feb. 25 Mar. 04 Mar. 11
Sunrise:07:12 AM (PST) Moon Rise:10:31 AM (PST)2/17
Sunset:05:35 PM (PST) Moon Set:01:13 AM (PST)2/17

Copyright © 2014 The Weather Underground, Inc.